Location: Detroit
(42.3310°N, 83.0460°W)
Time: 12:18:23
(UTC-05:00)

Tiros 1 despin weight - Visible Passes

Search period start: 30 January 2023 00:00
Search period end: 09 February 2023 00:00
Orbit: 589 x 636 km, 48.2° (Epoch: 29 January)

Date Brightness Start Highest point End Pass type
(mag) Time Alt. Az. Time Alt. Az. Time Alt. Az.
30 Jan ? 19:01:43 10° WSW 19:06:14 65° NNW 19:08:42 26° NE visible
30 Jan ? 20:43:56 10° WNW 20:45:39 21° WNW 20:45:39 21° WNW visible
31 Jan ? 19:16:45 10° W 19:21:09 48° NNW 19:22:56 30° NE visible
31 Jan ? 20:58:56 10° WNW 20:59:53 15° WNW 20:59:53 15° WNW visible
01 Feb ? 19:31:50 10° WNW 19:36:08 40° N 19:37:08 35° NNE visible
01 Feb ? 21:13:50 10° WNW 21:14:05 11° WNW 21:14:05 11° WNW visible
02 Feb ? 19:46:53 10° WNW 19:51:08 38° N 19:51:20 38° N visible
03 Feb ? 18:19:42 10° W 18:24:05 45° NNW 18:28:25 10° ENE visible
03 Feb ? 20:01:51 10° WNW 20:05:32 39° NNW 20:05:32 39° NNW visible
04 Feb ? 18:34:46 10° WNW 18:39:04 39° N 18:42:47 13° ENE visible
04 Feb ? 20:16:41 10° WNW 20:19:44 37° NW 20:19:44 37° NW visible
05 Feb ? 18:49:47 10° WNW 18:54:04 39° N 18:57:01 18° ENE visible
05 Feb ? 20:31:28 10° WNW 20:33:58 32° NW 20:33:58 32° NW visible
06 Feb ? 19:04:42 10° WNW 19:09:03 43° N 19:11:17 24° ENE visible
06 Feb ? 20:46:14 10° WNW 20:48:14 26° WNW 20:48:14 26° WNW visible
07 Feb ? 19:19:30 10° WNW 19:23:59 55° NNE 19:25:36 35° ENE visible
07 Feb ? 21:01:06 10° WNW 21:02:33 19° W 21:02:33 19° W visible
08 Feb ? 19:34:15 10° WNW 19:38:48 79° NNE 19:39:59 48° ESE visible
08 Feb ? 21:16:13 10° W 21:16:58 14° W 21:16:58 14° W visible
